Flag for U.S.A. Weather past 2 weeks in Oceanside, California, U.S.A.

Now
78 °F

Sunny.


Feels Like: 80 °F
Forecast: 61 / 77 °F
Wind: 12 mph from West

Location: Oceanside Weather Reporting Station

Current Time: Sep 22, 2014 at 1:58:25 PM

Latest Report: Sep 22, 2014 at 12:52 PM


Visibility: 10 mi

Pressure: 29.96 "Hg

Humidity: 58%

Dew point: 62 °F

Location of OceansideLocation

Historic Weather in Oceanside — Graph

°F

Oceanside temperature yesterday

Maximum temperature yesterday: 78 °F (at 12:52 PM)
Minimum temperature yesterday: 61 °F (at 11:52 PM)
Average temperature yesterday: 71 °F

Past Weeks' High & Low Weather Summary

 TemperatureHumidityPressure
High100 °F (Sep 16, 4:52 PM)91% (Sep 12, 3:52 AM)29.98 "Hg (Sep 12, 3:52 AM)
Low61 °F (Sep 10, 4:52 AM)27% (Sep 16, 4:52 PM)29.65 "Hg (Sep 16, 5:52 PM)
Average75 °F68%29.82 "Hg
* Reported Sep 7 12:52 PM — Sep 22 12:52 PM, Oceanside, Weather by CustomWeather, © 2014

Note: Actual official high and low records may vary slightly from our data, if they occured in-between our weather recording intervals... More about our weather records

Advertising

Oceanside weather history for previous 24 hours

 ConditionsComfort  
Time TempWeatherWind HumidityBarometerVisibility
12:52 PM
Sep 22
78 °FSunny.12 mph58%29.96 "Hg10 mi
11:52 AM76 °FSunny.12 mph60%29.97 "Hg10 mi
10:52 AM76 °FSunny.6 mph62%29.98 "Hg9 mi
9:52 AM74 °FScattered clouds.No wind64%29.98 "Hg9 mi
8:52 AM69 °FPassing clouds.3 mph73%29.98 "Hg8 mi
8:04 AM65 °FLow clouds.No wind81%29.98 "Hg8 mi
7:52 AM64 °FOvercast.No wind84%29.97 "Hg8 mi
6:52 AM63 °FPassing clouds.3 mph84%29.96 "Hg10 mi
5:52 AM64 °FLow clouds.3 mph84%29.94 "Hg10 mi
4:52 AMN/ALow clouds.No windN/A29.94 "Hg10 mi
3:52 AMN/APassing clouds.No windN/A29.94 "Hg9 mi
2:52 AMN/AClear.No windN/A29.95 "Hg7 mi
1:52 AMN/AClear.No windN/A29.95 "Hg8 mi
12:52 AMN/AClear.No windN/A29.95 "Hg8 mi
11:52 PM
Sep 21
61 °FClear.No wind90%29.95 "Hg9 mi
10:52 PM64 °FClear.No wind87%29.95 "Hg9 mi
9:52 PM68 °FClear.No wind84%29.93 "Hg10 mi
8:52 PM69 °FClear.6 mph81%29.93 "Hg10 mi
7:52 PM69 °FClear.5 mph79%29.92 "Hg10 mi
6:52 PM71 °FSunny.5 mph76%29.91 "Hg10 mi
5:52 PM74 °FSunny.9 mph64%29.91 "Hg10 mi
4:52 PM76 °FSunny.9 mph60%29.91 "Hg10 mi
3:52 PM77 °FSunny.10 mph56%29.92 "Hg10 mi
2:52 PM77 °FSunny.10 mph54%29.93 "Hg10 mi
1:52 PM78 °FSunny.9 mph52%29.93 "Hg10 mi
Weather by CustomWeather, © 2014

See weather overviewHow to use our weather pages